Погода в железнодорожной станции Тулебля

Россия / Новгородская область     57°57′25″N   31°03′37″E
темп.,
°C
ветер,
м/с
пор.,
м/с
влажн.,
%
обл.,
%
осадки,
мм/ч
давл.,
гПа
погр.,
м
17 апреля, сб
сб1700:00+7св41165100 0.0 1025418
03:00+5св4117163 0.0 1026377
06:00+4св4117995 0.0 1025390
09:00+7всв497288 0.0 1026505
12:00+13всв576063 0.0 1026988
15:00+15св575484 0.0 10251298
18:00+15всв58539 0.0 10251136
21:00+10св411589 0.0 1025356
18 апреля, вс
вс1800:00+7св412655 0.0 1026386
03:00+5св411770 0.0 1026324
06:00+4св411830 0.0 1026318
09:00+7св59650 0.0 1027503
12:00+12св58444 0.0 10261365
15:00+14всв57375 0.0 10251950
18:00+13всв47425 0.0 10251779
21:00+8всв39614 0.0 1026198
19 апреля, пн
пн1900:00+6всв311725 0.0 1027317
03:00+4св27845 0.0 1028180
06:00+3св27915 0.0 1028175
09:00+8всв367156 0.0 1028502
12:00+12св465419 0.0 10271330
15:00+13св464369 0.0 10261968
18:00+11вюв365699 0.0 1025742
21:00+7в396824 0.0 1026388
20 апреля, вт
вт2000:00+6в3974100 0.0 1025320
03:00+6всв3869100 0.0 1024364
06:00+6в3871100 0.0 1023429
09:00+6в4765100 0.0 1022678
12:00+10в57405 0.0 10201416
15:00+12в564191 0.0 10171892
18:00+11в4751100 0.0 10151567
21:00+6св51084100 0.3 10131039
21 апреля, ср
ср2100:00+5св61395100 2.9 1008905
03:00+4св61297100 9.9 1004934
06:00+4св51197100 2.1 1000809
09:00+4св41097100 5.8 998649
12:00+4ссв3796100 0.4 996394
15:00+4с3697100 1.2 995239
18:00+4зсз3698100 1.6 996291
21:00+4з4797100 2.5 998623